When you browse on this site, cookies collect data to enhance your experience and personalize the content and advertising you see.
Visit our Privacy Policy to learn more. By continuing to use the site, you agree to this use of cookies and data.
  • Em Portugal
  • Lista de países
  • Para 7 dias
  • Temperatura da água
  • Mapas de satélite
  • Mapa do tempo
  • Widgets de tempo
  • user-avatar
    Iniciar Sessão

    Previsão horária em Lykovschina

    Hoje, 24 Junho, Segunda-feira

    Tempo Temperatura Precipitação Vento Pressão Humidade
    00:00 +22°C° 0.1 mm 1 m/s 749 mmHg 90%
    01:00 +21°C° 0 mm 1 m/s 749 mmHg 91%
    02:00 +21°C° 0 mm 1 m/s 749 mmHg 91%
    03:00 +19°C° 0 mm 2 m/s 749 mmHg 90%
    04:00 +19°C° 0.1 mm 2 m/s 749 mmHg 89%
    05:00 +19°C° 0.1 mm 2 m/s 749 mmHg 88%
    06:00 +20°C° 0.1 mm 2 m/s 749 mmHg 87%
    07:00 +21°C° 0.1 mm 2 m/s 749 mmHg 83%
    08:00 +23°C° 0.1 mm 2 m/s 749 mmHg 79%
    09:00 +24°C° 0 mm 3 m/s 749 mmHg 75%
    10:00 +24°C° 0.3 mm 3 m/s 749 mmHg 73%
    11:00 +25°C° 0.3 mm 3 m/s 749 mmHg 70%
    12:00 +26°C° 0.3 mm 3 m/s 749 mmHg 68%
    13:00 +25°C° 0.3 mm 3 m/s 749 mmHg 69%
    14:00 +25°C° 0.3 mm 3 m/s 749 mmHg 70%
    15:00 +24°C° 0 mm 3 m/s 749 mmHg 79%
    16:00 +24°C° 0.2 mm 3 m/s 749 mmHg 78%
    17:00 +24°C° 0.2 mm 3 m/s 749 mmHg 77%
    18:00 +22°C° 0.2 mm 3 m/s 749 mmHg 77%
    19:00 +21°C° 0 mm 3 m/s 749 mmHg 78%
    20:00 +19°C° 0 mm 2 m/s 750 mmHg 79%
    21:00 +18°C° 0 mm 2 m/s 750 mmHg 80%
    22:00 +17°C° 0 mm 2 m/s 750 mmHg 82%
    23:00 +16°C° 0 mm 2 m/s 750 mmHg 83%

    Amanhã, 25 Junho, Terça-feira

    Tempo Temperatura Precipitação Vento Pressão Humidade
    00:00 +14°C° 0 mm 3 m/s 749 mmHg 84%
    01:00 +14°C° 0 mm 3 m/s 750 mmHg 82%
    02:00 +13°C° 0 mm 3 m/s 750 mmHg 80%
    03:00 +12°C° 0 mm 3 m/s 750 mmHg 77%
    04:00 +13°C° 0 mm 3 m/s 750 mmHg 76%
    05:00 +13°C° 0 mm 3 m/s 751 mmHg 75%
    06:00 +14°C° 0 mm 3 m/s 751 mmHg 75%
    07:00 +15°C° 0 mm 4 m/s 751 mmHg 72%
    08:00 +18°C° 0 mm 4 m/s 751 mmHg 69%
    09:00 +19°C° 0 mm 5 m/s 752 mmHg 66%
    10:00 +20°C° 0 mm 5 m/s 752 mmHg 62%
    11:00 +21°C° 0 mm 5 m/s 752 mmHg 58%
    12:00 +21°C° 0 mm 5 m/s 752 mmHg 54%
    13:00 +22°C° 0 mm 5 m/s 752 mmHg 55%
    14:00 +22°C° 0 mm 5 m/s 752 mmHg 56%
    15:00 +22°C° 0 mm 5 m/s 752 mmHg 57%
    16:00 +21°C° 0 mm 4 m/s 752 mmHg 61%
    17:00 +20°C° 0 mm 4 m/s 752 mmHg 65%
    18:00 +20°C° 0 mm 3 m/s 752 mmHg 69%
    19:00 +18°C° 0 mm 3 m/s 752 mmHg 72%
    20:00 +17°C° 0 mm 3 m/s 752 mmHg 76%
    21:00 +14°C° 0 mm 3 m/s 753 mmHg 80%
    22:00 +13°C° 0 mm 3 m/s 753 mmHg 83%
    23:00 +13°C° 0 mm 2 m/s 752 mmHg 86%

    Depois de amanhã, 26 Junho, Quarta-feira

    Tempo Temperatura Precipitação Vento Pressão Humidade
    00:00 +12°C° 0 mm 2 m/s 752 mmHg 89%
    01:00 +12°C° 0 mm 2 m/s 753 mmHg 89%
    02:00 +10°C° 0 mm 2 m/s 753 mmHg 90%
    03:00 +10°C° 0 mm 3 m/s 753 mmHg 90%
    04:00 +11°C° 0 mm 3 m/s 753 mmHg 87%
    05:00 +11°C° 0 mm 3 m/s 753 mmHg 84%
    06:00 +12°C° 0 mm 3 m/s 753 mmHg 81%
    07:00 +14°C° 0 mm 3 m/s 753 mmHg 75%
    08:00 +16°C° 0 mm 3 m/s 753 mmHg 68%
    09:00 +18°C° 0 mm 3 m/s 753 mmHg 62%
    10:00 +18°C° 0 mm 3 m/s 753 mmHg 59%
    11:00 +19°C° 0 mm 3 m/s 752 mmHg 56%
    12:00 +19°C° 0 mm 4 m/s 752 mmHg 54%
    13:00 +19°C° 0 mm 4 m/s 752 mmHg 53%
    14:00 +20°C° 0 mm 4 m/s 752 mmHg 53%
    15:00 +20°C° 0 mm 4 m/s 751 mmHg 53%
    16:00 +20°C° 0 mm 3 m/s 751 mmHg 57%
    17:00 +20°C° 0 mm 3 m/s 750 mmHg 61%
    18:00 +19°C° 0 mm 2 m/s 750 mmHg 65%
    19:00 +17°C° 0 mm 2 m/s 750 mmHg 70%
    20:00 +16°C° 0 mm 2 m/s 749 mmHg 74%
    21:00 +14°C° 0 mm 1 m/s 749 mmHg 78%
    22:00 +14°C° 0 mm 1 m/s 749 mmHg 79%
    23:00 +14°C° 0 mm 2 m/s 748 mmHg 81%

    27 Junho, Quinta-feira

    Tempo Temperatura Precipitação Vento Pressão Humidade
    00:00 +14°C° 0 mm 2 m/s 748 mmHg 83%
    01:00 +14°C° 0.2 mm 2 m/s 748 mmHg 86%
    02:00 +13°C° 0.2 mm 2 m/s 747 mmHg 89%
    03:00 +13°C° 0.2 mm 2 m/s 747 mmHg 93%
    04:00 +14°C° 0.3 mm 2 m/s 747 mmHg 93%
    05:00 +13°C° 0.3 mm 3 m/s 746 mmHg 93%
    06:00 +13°C° 0.3 mm 3 m/s 746 mmHg 93%
    07:00 +14°C° 0.1 mm 3 m/s 745 mmHg 89%
    08:00 +16°C° 0.1 mm 2 m/s 745 mmHg 86%
    09:00 +17°C° 0.1 mm 2 m/s 745 mmHg 82%
    10:00 +18°C° 0.3 mm 2 m/s 744 mmHg 80%
    11:00 +18°C° 0.3 mm 3 m/s 744 mmHg 77%
    12:00 +19°C° 0.3 mm 4 m/s 744 mmHg 75%
    13:00 +18°C° 0.1 mm 4 m/s 743 mmHg 77%
    14:00 +18°C° 0.1 mm 4 m/s 743 mmHg 78%
    15:00 +18°C° 0.1 mm 4 m/s 742 mmHg 80%
    16:00 +17°C° 1 mm 4 m/s 741 mmHg 85%
    17:00 +15°C° 1 mm 4 m/s 741 mmHg 91%
    18:00 +14°C° 1 mm 3 m/s 740 mmHg 97%
    19:00 +14°C° 1.3 mm 4 m/s 740 mmHg 97%
    20:00 +14°C° 1.3 mm 5 m/s 739 mmHg 97%
    21:00 +14°C° 1.3 mm 5 m/s 739 mmHg 97%
    22:00 +14°C° 1.2 mm 6 m/s 738 mmHg 97%
    23:00 +15°C° 1.2 mm 6 m/s 738 mmHg 96%

    28 Junho, Sexta-feira

    Tempo Temperatura Precipitação Vento Pressão Humidade
    00:00 +15°C° 1.2 mm 6 m/s 737 mmHg 96%
    01:00 +15°C° 0.2 mm 6 m/s 737 mmHg 96%
    02:00 +15°C° 0.2 mm 6 m/s 736 mmHg 96%
    03:00 +15°C° 0.2 mm 6 m/s 736 mmHg 96%
    04:00 +15°C° 0.3 mm 5 m/s 735 mmHg 95%
    05:00 +15°C° 0.3 mm 5 m/s 735 mmHg 95%
    06:00 +15°C° 0.3 mm 5 m/s 734 mmHg 95%
    07:00 +15°C° 0.1 mm 6 m/s 734 mmHg 91%
    08:00 +16°C° 0.1 mm 6 m/s 733 mmHg 88%
    09:00 +16°C° 0.1 mm 7 m/s 733 mmHg 84%
    10:00 +16°C° 1 mm 6 m/s 733 mmHg 87%
    11:00 +15°C° 1 mm 6 m/s 733 mmHg 90%
    12:00 +15°C° 1 mm 5 m/s 733 mmHg 94%
    13:00 +16°C° 0.8 mm 5 m/s 733 mmHg 92%
    14:00 +17°C° 0.8 mm 5 m/s 733 mmHg 90%
    15:00 +17°C° 0.8 mm 5 m/s 733 mmHg 88%
    16:00 +19°C° 0.3 mm 5 m/s 733 mmHg 87%
    17:00 +19°C° 0.3 mm 4 m/s 733 mmHg 86%
    18:00 +19°C° 0.3 mm 3 m/s 733 mmHg 85%
    19:00 +18°C° 0.2 mm 3 m/s 733 mmHg 87%
    20:00 +16°C° 0.2 mm 3 m/s 733 mmHg 90%
    21:00 +14°C° 0.2 mm 3 m/s 733 mmHg 92%
    22:00 +13°C° 0 mm 3 m/s 734 mmHg 93%
    23:00 +14°C° 0 mm 2 m/s 734 mmHg 93%

    29 Junho, Sábado

    Tempo Temperatura Precipitação Vento Pressão Humidade
    00:00 +13°C° 0 mm 2 m/s 734 mmHg 94%
    01:00 +11°C° 0 mm 3 m/s 734 mmHg 95%
    02:00 +11°C° 0 mm 3 m/s 734 mmHg 95%
    03:00 +11°C° 0 mm 3 m/s 734 mmHg 96%
    04:00 +11°C° 0 mm 3 m/s 734 mmHg 94%
    05:00 +12°C° 0 mm 4 m/s 734 mmHg 93%
    06:00 +12°C° 0 mm 4 m/s 735 mmHg 92%
    07:00 +14°C° 0 mm 4 m/s 735 mmHg 87%
    08:00 +15°C° 0 mm 4 m/s 735 mmHg 82%
    09:00 +16°C° 0 mm 5 m/s 735 mmHg 77%
    10:00 +18°C° 0.3 mm 4 m/s 735 mmHg 76%
    11:00 +18°C° 0.3 mm 4 m/s 735 mmHg 74%
    12:00 +19°C° 0.3 mm 4 m/s 736 mmHg 72%
    13:00 +19°C° 0.5 mm 4 m/s 736 mmHg 72%
    14:00 +20°C° 0.5 mm 4 m/s 736 mmHg 72%
    15:00 +20°C° 0.5 mm 4 m/s 736 mmHg 71%
    16:00 +19°C° 0.3 mm 4 m/s 736 mmHg 74%
    17:00 +19°C° 0.3 mm 3 m/s 736 mmHg 77%
    18:00 +19°C° 0.3 mm 3 m/s 736 mmHg 79%
    19:00 +17°C° 0.1 mm 2 m/s 736 mmHg 83%
    20:00 +16°C° 0.1 mm 2 m/s 736 mmHg 86%
    21:00 +15°C° 0.1 mm 2 m/s 737 mmHg 89%
    22:00 +14°C° 0 mm 1 m/s 737 mmHg 90%
    23:00 +14°C° 0 mm 1 m/s 737 mmHg 91%
    Mostrar mais